Stations météo

réclame
Mon MeteoGroup
Leutkirch-Herlazhofen, Allemagne (10945): Température de l'air & dewpoint: 05.12.2019 05:00:00 - 11.12.2019 05:00:00 (CET)Leutkirch-Herlazhofen, Allemagne (10945): Température de l'air 5cm & Température de l'air -5cm: 05.12.2019 05:00:00 - 11.12.2019 05:00:00 (CET)Leutkirch-Herlazhofen, Allemagne (10945): Température de l'air -20cm & Température de l'air -100cm: 05.12.2019 05:00:00 - 11.12.2019 05:00:00 (CET)Leutkirch-Herlazhofen, Allemagne (10945): Vitesse du vent & gusts: 05.12.2019 05:00:00 - 11.12.2019 05:00:00 (CET)Leutkirch-Herlazhofen, Allemagne (10945): Direction du vent: 05.12.2019 05:00:00 - 11.12.2019 05:00:00 (CET)Leutkirch-Herlazhofen, Allemagne (10945): reduced air pressure: 05.12.2019 05:00:00 - 11.12.2019 05:00:00 (CET)Leutkirch-Herlazhofen, Allemagne (10945): visibility: 05.12.2019 05:00:00 - 11.12.2019 05:00:00 (CET)Leutkirch-Herlazhofen, Allemagne (10945): Ensoleillement: 05.12.2019 05:00:00 - 11.12.2019 05:00:00 (CET)Leutkirch-Herlazhofen, Allemagne (10945): Quantités de précipitations: 05.12.2019 05:00:00 - 11.12.2019 05:00:00 (CET)
Date & Time tt [°C] td [°C] tt 5cm [°C] tt -5cm [°C] tt -20cm [°C] tt -100cm [°C] ff [km/h] ff [knt] fx [km/h] fx [knt] dd ppp [hPa] vv [km] sd [min] rr [mm]
11.12.2019 05:00:00 -6,4 -8,0 -9,5 0,6 2,9 6,6 4 2 10 6 S 1022,1 64 0 0,0
11.12.2019 04:00:00 -5,9 -7,4 -9,6 0,8 3,0 6,6 4 2 9 5 S 1022,9 51 0 0,0
11.12.2019 03:00:00 -5,7 -7,5 -10,3 0,9 3,0 6,6 3 1 11 6 SW 1024,2 66 0 0,0
11.12.2019 02:00:00 -4,7 -6,6 -6,6 1,0 3,1 6,6 9 5 12 7 SSE 1024,9 75 0 0,0
11.12.2019 01:00:00 -5,9 -7,3 -9,3 1,1 3,1 6,6 3 2 6 3 SE 1026,4 43 0 0,0
11.12.2019 00:00:00 -5,5 -6,8 -9,0 1,2 3,2 6,6 4 2 6 3 SSE 1026,9 41 0 0,0
10.12.2019 23:00:00 -5,8 -6,8 -8,3 1,3 3,3 6,6 0 0 6 4 N 1027,3 34 0 0,0
10.12.2019 22:00:00 -5,0 -6,0 -8,3 1,3 3,3 6,6 3 1 4 2 SE 1027,3 31 0 0,0
10.12.2019 21:00:00 -4,6 -6,1 -7,9 1,4 3,4 6,6 0 0 4 2 N 1027,8 37 0 0,0
10.12.2019 20:00:00 -3,9 -5,2 -6,4 1,5 3,5 6,6 0 0 5 3 N 1027,9 34 0 0,0
10.12.2019 19:00:00 -2,3 -4,4 -6,1 1,7 3,5 6,6 0 0 6 3 N 1028,0 40 0 0,0
10.12.2019 18:00:00 -2,3 -3,9 -4,6 1,9 3,6 6,6 4 2 13 7 SSE 1028,8 36 0 0,0
10.12.2019 17:00:00 -0,8 -3,2 -2,7 2,3 3,6 6,6 9 5 12 6 SSE 1029,0 38 6 0,0
10.12.2019 16:00:00 0,7 -3,1 -1,7 3,3 3,6 6,6 6 4 15 8 S 1029,2 45 43 0,0
10.12.2019 15:00:00 2,2 -3,8 2,8 3,6 3,5 6,6 12 7 16 9 SSW 1029,0 48 38 0,0
10.12.2019 14:00:00 1,5 -2,0 1,7 3,5 3,4 6,6 10 6 18 10 SSW 1029,6 32 0 0,0
10.12.2019 13:00:00 1,4 -2,5 1,2 3,9 3,4 6,6 12 7 19 11 SW 1030,2 38 48 0,0
10.12.2019 12:00:00 1,6 -2,8 1,5 2,8 3,3 6,6 8 4 13 7 SSW 1029,9 40 21 0,0
10.12.2019 11:00:00 0,8 -1,8 1,3 2,0 3,4 6,6 10 6 18 10 SSW 1030,5 35 0 0,0
10.12.2019 10:00:00 0,3 -1,3 0,3 1,8 3,4 6,6 14 7 21 12 WSW 1030,5 24 2 0,0
10.12.2019 09:00:00 0,5 -1,5 -0,1 1,7 3,5 6,6 9 5 17 9 W 1029,8 27 0 0,0
10.12.2019 08:00:00 0,7 -1,5 0,2 1,8 3,6 6,6 14 8 21 11 WNW 1029,0 29 0 0,0
10.12.2019 07:00:00 0,5 -1,3 0,0 1,9 3,7 6,6 9 5 18 10 W 1027,6 25 0 0,0
10.12.2019 06:00:00 0,6 -1,5 -0,4 2,3 3,7 6,6 11 6 19 11 WNW 1026,3 26 0 0,0
10.12.2019 05:00:00 1,5 -0,5 1,0 2,6 3,8 6,6 15 8 32 17 NW 1024,6 29 0 0,0
10.12.2019 04:00:00 1,6 0,4 1,2 2,8 3,8 6,6 16 8 26 14 NW 1023,4 7 0 0,4
10.12.2019 03:00:00 2,2 0,8 1,7 2,9 3,8 6,6 18 10 29 15 WNW 1021,6 10 0 0,0
10.12.2019 02:00:00 2,5 1,3 2,0 2,9 3,9 6,6 15 8 22 12 W 1019,9 27 0 0,1
10.12.2019 01:00:00 2,0 1,2 1,6 3,0 3,9 6,6 16 9 34 19 W 1018,8 8 0 1,2
10.12.2019 00:00:00 2,5 1,4 2,0 3,2 3,9 6,6 23 12 33 18 W 1017,4 6 0 1,3
09.12.2019 23:00:00 3,1 1,9 2,5 3,2 3,9 6,6 17 9 26 14 WSW 1015,7 15 0 0,1
09.12.2019 22:00:00 3,3 1,9 2,7 3,3 4,0 6,6 19 10 29 16 WSW 1014,9 24 0 0,0
09.12.2019 21:00:00 3,5 2,0 3,0 3,3 4,0 6,6 20 11 41 22 WSW 1013,4 67 0 0,1
09.12.2019 20:00:00 3,4 2,5 2,9 3,3 4,0 6,6 23 13 41 22 WSW 1011,5 24 0 1,1
09.12.2019 19:00:00 3,0 1,9 2,5 3,4 4,0 6,6 26 14 49 26 SW 1010,1 15 0 0,7
09.12.2019 18:00:00 3,5 2,1 2,8 3,5 4,1 6,6 14 8 43 23 SW 1009,0 18 0 0,6
09.12.2019 17:00:00 4,2 1,0 3,1 3,7 4,1 6,6 21 11 49 26 SW 1008,0 53 0 0,0
09.12.2019 16:00:00 4,3 1,4 3,1 4,0 4,0 6,6 28 15 49 26 SW 1007,8 75 0 0,1
09.12.2019 15:00:00 4,5 1,7 3,5 4,3 4,0 6,6 29 15 63 34 SW 1007,2 23 0 0,4
09.12.2019 14:00:00 6,2 0,4 5,1 4,7 3,9 6,6 32 17 47 26 WSW 1006,3 53 25 0,0
09.12.2019 13:00:00 7,3 0,4 7,7 4,6 3,8 6,6 29 16 51 27 SW 1006,1 74 36 0,0
09.12.2019 12:00:00 6,5 0,1 5,9 4,4 3,7 6,6 35 19 59 32 SW 1007,2 74 39 0,0
09.12.2019 11:00:00 6,8 0,5 6,8 4,1 3,7 6,6 34 19 61 33 SW 1007,3 60 52 0,0
09.12.2019 10:00:00 5,5 1,1 5,0 3,2 3,7 6,6 20 11 32 17 SSW 1008,1 73 55 0,0
09.12.2019 09:00:00 4,2 0,7 2,8 2,9 3,8 6,6 18 10 35 19 SSW 1008,7 54 0 0,0
09.12.2019 08:00:00 4,9 0,7 3,9 2,9 3,8 6,6 22 12 43 23 SW 1008,9 49 0 0,0
09.12.2019 07:00:00 5,0 0,8 3,5 3,1 3,9 6,6 23 13 36 19 SW 1009,0 55 0 0,0
09.12.2019 06:00:00 4,8 1,4 3,2 3,3 3,9 6,7 23 13 40 21 SW 1009,1 56 0 0,0
09.12.2019 05:00:00 4,6 1,3 3,0 3,8 3,9 6,7 19 11 49 26 SW 1009,5 54 0 0,1
09.12.2019 04:00:00 5,1 1,9 3,7 4,2 3,8 6,7 34 18 59 32 WSW 1009,6 42 0 0,4
09.12.2019 03:00:00 6,7 3,4 6,0 4,3 3,8 6,7 34 19 49 26 W 1009,3 55 0 0,0
09.12.2019 02:00:00 7,2 3,7 6,3 4,1 3,7 6,7 22 12 33 18 SW 1008,8 75 0 0,0
09.12.2019 01:00:00 6,5 3,4 5,4 4,1 3,7 6,7 24 13 46 25 SW 1008,8 73 0 0,1
09.12.2019 00:00:00 6,2 4,6 5,2 3,9 3,6 6,7 26 14 47 26 SW 1009,1 58 0 1,6
08.12.2019 23:00:00 7,1 2,4 5,1 3,6 3,6 6,7 22 12 42 23 SW 1009,0 33 0 0,1
08.12.2019 22:00:00 7,3 0,4 6,1 3,4 3,6 6,7 18 10 28 15 SW 1009,1 75 0 0,0
08.12.2019 21:00:00 6,7 -0,5 5,1 3,5 3,6 6,7 13 7 24 13 SW 1009,7 75 0 0,0
08.12.2019 20:00:00 8,1 -0,8 6,6 3,4 3,6 6,7 20 11 45 24 SSW 1008,9 75 0 0,0
08.12.2019 19:00:00 6,9 -0,2 5,7 3,3 3,6 6,7 20 11 30 16 SSW 1010,6 75 0 0,0
08.12.2019 18:00:00 5,7 0,7 4,0 3,6 3,6 6,7 15 8 27 14 SSW 1011,8 71 0 0,0
08.12.2019 17:00:00 6,2 1,0 4,5 4,2 3,5 6,7 21 12 37 20 SSW 1012,4 75 0 0,0
08.12.2019 16:00:00 7,5 1,7 6,3 4,7 3,4 6,7 27 15 45 24 SW 1012,4 75 28 0,0
08.12.2019 15:00:00 7,7 2,2 6,9 5,0 3,2 6,7 25 14 45 25 SW 1012,8 75 26 0,0
08.12.2019 14:00:00 7,8 2,4 8,2 4,9 3,0 6,7 27 14 42 23 SW 1013,9 75 60 0,0
08.12.2019 13:00:00 7,3 2,1 7,8 4,4 2,9 6,7 26 14 46 25 SW 1014,9 65 60 0,0
08.12.2019 12:00:00 6,9 2,0 7,5 3,8 2,7 6,7 29 16 46 25 SW 1015,8 57 60 0,0
08.12.2019 11:00:00 6,3 1,4 6,6 2,9 2,7 6,8 26 14 41 22 SSW 1016,6 75 60 0,0
08.12.2019 10:00:00 5,2 1,0 4,7 1,9 2,7 6,8 26 14 39 21 SW 1017,1 59 60 0,0
08.12.2019 09:00:00 3,1 -0,3 1,8 1,4 2,8 6,8 18 10 31 17 S 1017,9 75 10 0,0
08.12.2019 08:00:00 3,6 0,2 1,9 1,3 2,8 6,8 21 11 34 18 SSW 1017,9 75 0 0,0
08.12.2019 07:00:00 2,6 -0,4 0,9 1,4 2,9 6,8 16 9 23 12 SSW 1018,3 70 0 0,0
08.12.2019 06:00:00 3,2 -0,1 1,3 1,7 2,9 6,8 15 8 22 12 SSW 1018,4 75 0 0,0
08.12.2019 05:00:00 2,4 0,2 -0,3 2,3 3,0 6,8 9 5 20 11 SSW 1019,5 65 0 0,0
08.12.2019 04:00:00 3,8 1,4 2,5 2,6 2,9 6,8 10 5 22 12 SW 1019,8 56 0 0,0
08.12.2019 03:00:00 4,4 1,9 2,8 2,9 2,9 6,8 16 9 23 12 SSW 1019,7 60 0 0,0
08.12.2019 02:00:00 5,2 2,7 4,4 3,0 2,8 6,8 10 5 17 9 SSW 1020,6 73 0 0,0
08.12.2019 01:00:00 4,3 2,8 3,1 3,1 2,8 6,8 6 3 13 7 SW 1021,4 49 0 0,0
08.12.2019 00:00:00 5,5 3,0 4,6 3,1 2,7 6,8 11 6 20 11 WSW 1021,6 75 0 0,0
07.12.2019 23:00:00 5,8 3,0 4,7 3,1 2,6 6,8 13 7 28 15 SW 1021,5 69 0 0,0
07.12.2019 22:00:00 6,2 3,0 5,2 3,1 2,5 6,8 16 9 26 14 SW 1021,5 75 0 0,0
07.12.2019 21:00:00 6,4 2,9 5,5 3,0 2,4 6,9 16 8 23 12 SW 1021,7 75 0 0,0
07.12.2019 20:00:00 6,2 3,3 5,2 2,9 2,3 6,9 13 7 22 12 SSW 1021,6 73 0 0,0
07.12.2019 19:00:00 6,1 2,9 5,0 2,9 2,2 6,9 16 9 27 15 SSW 1021,3 75 0 0,0
07.12.2019 18:00:00 6,1 3,1 5,3 2,9 2,1 6,9 16 9 29 16 SW 1021,3 67 0 0,0
07.12.2019 17:00:00 6,5 3,2 5,8 2,8 2,0 6,9 16 9 26 14 SW 1020,4 65 0 0,0
07.12.2019 16:00:00 6,6 3,2 5,9 2,8 1,9 6,9 19 11 33 18 SSW 1019,8 68 0 0,0
07.12.2019 15:00:00 6,6 3,5 6,1 2,6 1,8 6,9 20 11 32 17 SW 1019,5 67 0 0,0
07.12.2019 14:00:00 6,4 3,9 6,2 2,4 1,7 6,9 22 12 33 18 SW 1019,6 61 0 0,0
07.12.2019 13:00:00 6,0 4,0 6,0 2,1 1,7 6,9 18 10 35 19 SSW 1019,6 45 3 0,0
07.12.2019 12:00:00 6,3 3,5 6,2 1,5 1,7 6,9 23 12 35 19 SW 1019,8 65 0 0,0
07.12.2019 11:00:00 6,5 3,0 6,2 0,9 1,6 6,9 19 11 33 18 SW 1019,9 56 0 0,0
07.12.2019 10:00:00 5,8 2,1 5,2 0,4 1,6 6,9 19 10 29 16 SSW 1019,6 66 0 0,0
07.12.2019 09:00:00 5,9 2,0 4,9 0,1 1,6 7,0 16 9 25 14 SW 1019,1 75 0 0,0
07.12.2019 08:00:00 5,4 2,3 4,0 0,0 1,6 7,0 16 9 33 18 SW 1018,8 61 0 0,1
07.12.2019 07:00:00 6,2 2,4 4,2 0,0 1,6 7,0 24 13 44 24 SW 1017,9 27 0 0,1
07.12.2019 06:00:00 6,6 1,2 5,4 0,0 1,6 7,0 32 17 54 29 SW 1017,1 69 0 0,0
07.12.2019 05:00:00 6,4 1,2 5,1 0,0 1,6 7,0 29 16 49 26 SW 1017,0 50 0 0,0
07.12.2019 04:00:00 5,7 1,5 4,3 0,0 1,6 7,0 24 13 34 19 SSW 1017,1 70 0 0,0
07.12.2019 03:00:00 4,8 2,1 3,0 0,0 1,6 7,0 23 13 34 19 SSW 1017,7 33 0 0,2
07.12.2019 02:00:00 4,5 2,0 2,8 0,0 1,6 7,0 22 12 43 23 SSW 1017,7 25 0 0,8
07.12.2019 01:00:00 5,1 -1,2 2,7 -0,1 1,6 7,0 16 8 23 13 SW 1018,0 21 0 0,0
07.12.2019 00:00:00 4,6 -2,6 1,9 -0,1 1,6 7,0 14 8 28 15 SSW 1018,4 28 0 0,0
06.12.2019 23:00:00 2,7 -3,2 1,0 -0,1 1,6 7,0 10 6 20 11 SSW 1019,0 57 0 0,0
06.12.2019 22:00:00 2,7 -3,8 0,6 -0,1 1,6 7,0 14 7 24 13 SW 1019,1 59 0 0,0
06.12.2019 21:00:00 3,6 -3,9 1,2 -0,1 1,6 7,1 15 8 20 11 SW 1018,6 69 0 0,0
06.12.2019 20:00:00 4,2 -3,6 0,8 -0,1 1,6 7,1 11 6 24 13 SSW 1018,7 67 0 0,0
06.12.2019 19:00:00 3,6 -2,7 0,7 -0,1 1,6 7,1 15 8 23 13 SSW 1019,0 60 0 0,0
06.12.2019 18:00:00 2,8 -2,3 0,2 -0,1 1,6 7,1 13 7 18 10 SSW 1019,8 37 0 0,0
06.12.2019 17:00:00 2,8 -2,5 0,5 -0,1 1,6 7,1 12 6 22 12 SSW 1019,8 40 23 0,0
06.12.2019 16:00:00 4,1 -2,9 2,3 -0,1 1,6 7,1 13 7 21 11 WSW 1019,5 66 60 0,0
06.12.2019 15:00:00 5,4 -2,7 5,1 -0,2 1,6 7,1 16 9 36 20 WSW 1019,3 43 60 0,0
06.12.2019 14:00:00 6,3 -3,1 6,4 -0,2 1,7 7,1 19 10 31 17 SW 1019,5 63 60 0,0
06.12.2019 13:00:00 6,0 -4,0 6,2 -0,2 1,7 7,1 17 9 29 15 SW 1020,6 46 60 0,0
06.12.2019 12:00:00 4,2 -1,6 4,0 -0,3 1,7 7,1 11 6 21 12 S 1022,0 75 60 0,0
06.12.2019 11:00:00 2,6 -3,0 2,2 -0,4 1,7 7,1 13 7 18 10 SSW 1023,3 63 60 0,0
06.12.2019 10:00:00 0,3 -3,4 -0,6 -0,6 1,7 7,2 7 4 15 8 SSW 1023,9 43 60 0,0
06.12.2019 09:00:00 -1,5 -3,7 -4,1 -0,8 1,7 7,2 3 1 7 4 SW 1024,4 57 36 0,0
06.12.2019 08:00:00 -4,2 -5,7 -8,5 -0,8 1,8 7,2 0 0 0 0 N 1025,2 41 0 0,0
06.12.2019 07:00:00 -5,3 -6,2 -8,6 -0,6 1,8 7,2 0 0 0 0 N 1025,5 25 0 0,0
06.12.2019 06:00:00 -5,7 -6,9 -8,8 -0,5 1,8 7,2 0 0 0 0 N 1025,7 30 0 0,0
06.12.2019 05:00:00 -5,0 -6,0 -8,8 -0,3 1,8 7,2 0 0 0 0 N 1025,4 27 0 0,0
06.12.2019 04:00:00 -5,7 -6,6 -8,5 -0,1 1,8 7,2 0 0 0 0 N 1025,8 15 0 0,0
06.12.2019 03:00:00 -4,0 -4,9 -5,3 0,0 1,9 7,2 0 0 0 0 N 1025,4 15 0 0,0
06.12.2019 02:00:00 -6,0 -6,9 -8,8 0,1 1,9 7,2 0 0 6 3 N 1026,3 8 0 0,0
06.12.2019 01:00:00 -4,7 -5,6 -6,6 0,1 1,9 7,2 6 4 14 8 S 1025,9 15 0 0,0
06.12.2019 00:00:00 -4,8 -5,5 -6,3 0,0 1,9 7,2 4 2 8 4 WSW 1026,5 4,0 0 0,0
05.12.2019 23:00:00 -5,1 -5,7 -7,8 0,0 1,9 7,2 0 0 7 4 N 1026,8 5 0 0,0
05.12.2019 22:00:00 -3,9 -4,4 -5,3 0,0 1,9 7,3 6 4 12 6 WSW 1026,9 3,5 0 0,0
05.12.2019 21:00:00 -3,3 -3,3 -4,8 0,0 1,9 7,3 5 3 16 9 SSW 1026,8 3,0 0 0,0
05.12.2019 20:00:00 -2,5 -2,8 -2,2 0,0 1,9 7,3 7 4 10 5 SSW 1026,8 0,5 0 0,0
05.12.2019 19:00:00 -2,4 -2,8 -2,2 0,0 1,9 7,3 8 4 10 5 SW 1026,4 1,4 0 0,0
05.12.2019 18:00:00 -2,3 -2,5 -2,0 0,0 1,9 7,3 7 4 13 7 WSW 1026,0 0,2 0 0,0
05.12.2019 17:00:00 -1,7 -2,0 -1,5 0,0 1,9 7,3 9 5 13 7 WSW 1025,4 0,1 12 0,0
05.12.2019 16:00:00 0,3 -1,2 -0,3 0,0 1,9 7,3 7 4 14 7 W 1024,1 6 60 0,0
05.12.2019 15:00:00 2,2 0,5 2,7 -0,1 1,9 7,3 9 5 12 7 WSW 1023,1 9 60 0,0
05.12.2019 14:00:00 2,0 0,0 3,4 -0,1 1,9 7,3 6 3 10 5 W 1023,6 11 60 0,0
05.12.2019 13:00:00 -0,1 -0,6 1,0 -0,1 1,9 7,3 2 1 7 4 SW 1024,3 4,1 27 0,0
05.12.2019 12:00:00 -1,6 -1,8 -0,5 -0,1 1,9 7,3 3 2 9 5 NNE 1025,4 0,4 34 0,0
05.12.2019 11:00:00 -3,0 -3,8 -1,7 -0,1 1,9 7,4 5 3 7 4 N 1026,0 0,4 42 0,0
05.12.2019 10:00:00 -3,5 -4,1 -3,3 -0,2 1,9 7,4 2 1 4 2 WSW 1026,1 1,7 11 0,0
05.12.2019 09:00:00 -5,0 -5,3 -4,2 -0,2 1,9 7,4 4 2 6 3 E 1026,4 0,1 0 0,0
05.12.2019 08:00:00 -4,5 -5,0 -4,1 -0,2 1,9 7,4 6 3 7 4 ESE 1026,0 0,2 0 0,0
05.12.2019 07:00:00 -3,7 -4,0 -3,9 -0,2 1,9 7,4 4 2 8 5 SSE 1025,2 0,6 0 0,0
05.12.2019 06:00:00 -3,1 -3,4 -3,2 -0,2 2,0 7,4 7 4 11 6 SSW 1024,8 1,1 0 0,0
05.12.2019 05:00:00 -2,9 -3,3 -3,1 -0,2 2,0 7,4 8 4 15 8 SW 1024,6 0,5 0 0,0

tt = Température de l'air
td = dewpoint
tt 5cm = Température de l'air 5cm
tt -5cm = Température de l'air -5cm
tt -20cm = Température de l'air -20cm
tt -100cm = Température de l'air -100cm
ff = Vitesse du vent
fx = gusts
dd = Direction du vent
ppp = reduced air pressure
vv = visibility
sd = Ensoleillement
rr = Quantités de précipitations

stations d'obs. à proximité